G4MHJ-1 Weather Reports


time (UTC)temp
C
wind
direction
speed
KPH
gust
KPH
rain 1hr
cm
rain 24hr
cm
rain mn
cm
humidity
%
barometer
mb
20260505222134 11 32 8.0 14.5 0.00 0.00 0.00 84 1012.8
20260505212132 11 43 1.6 9.7 0.00 0.00 0.00 77 1012.7
20260505202131 12 46 1.6 11.3 0.00 0.00 0.00 74 1012.4
20260505192129 12 141 0.0 8.0 0.00 0.00 0.00 74 1011.6
20260505182129 13 94 0.0 9.7 0.00 0.00 0.00 69 1011.2
20260505172128 13 123 0.0 9.7 0.00 0.00 0.00 65 1011.3
20260505162130 15 182 1.6 11.3 0.00 0.00 0.00 60 1011.4
20260505152128 16 53 3.2 11.3 0.00 0.00 0.00 54 1011.4
20260505122121 16 49 6.4 17.7 0.00 0.00 0.00 57 1011.9
20260505112119 15 61 6.4 14.5 0.00 0.00 0.00 61 1012.1
20260505102119 14 5 4.8 17.7 0.00 0.00 0.00 70 1012.5
20260505092117 12 349 6.4 16.1 0.00 0.00 0.00 77 1012.8
20260505082107 12 56 6.4 14.5 0.00 0.00 0.00 79 1013.0
20260505072107 11 51 6.4 14.5 0.00 0.00 0.00 86 1012.9
20260505062107 10 44 4.8 11.3 0.00 0.00 0.00 91 1013.2
20260505052109 10 49 3.2 8.0 0.00 0.00 0.00 93 1013.3
20260505032105 10 44 1.6 9.7 0.00 0.00 0.00 93 1013.4
20260505022104 10 43 1.6 9.7 0.00 0.00 0.00 93 1013.6
20260505012104 11 56 0.0 8.0 0.00 0.00 0.00 93 1014.0
20260505002103 11 35 1.6 11.3 0.00 0.00 0.00 93 1014.2
20260504232102 11 69 0.0 11.3 0.00 0.00 0.00 92 1014.4